Wind_Speed
27 30 31 32 34 35 36 36 37 38 39 40 41 40 42 42 43 43 44 44 44 43 42 42 42 41 41 41 41 41 41 41 41 41 40 40 39 39 39 38 37 37 36 35
26 28 28 31 33 35 36 36 34 35 36 39 40 39 40 41 42 42 44 45 45 43 42 42 42 41 41 41 41 40 41 41 41 40 40 40 39 39 39 38 38 37 37 36
25 25 26 29 31 33 34 34 33 33 34 36 38 40 40 40 42 42 44 44 44 44 43 42 42 42 41 40 40 40 41 40 40 40 40 40 39 39 39 39 38 38 37 36
22 24 25 27 29 32 33 33 32 33 34 35 37 39 39 39 40 41 42 43 42 42 43 42 42 42 41 41 40 40 40 40 40 41 41 40 39 39 39 39 39 39 38 37
20 22 24 26 27 29 31 32 31 31 32 34 36 38 38 39 39 39 40 41 41 41 41 41 41 41 41 41 41 40 40 40 40 40 41 41 39 38 39 39 39 38 37 37
18 21 23 24 25 26 28 30 31 30 31 32 32 35 36 38 37 37 38 39 40 41 41 41 41 41 41 41 40 40 40 39 39 39 40 41 40 38 38 39 38 38 37 37
16 19 21 22 24 25 25 26 28 29 31 31 30 33 34 34 35 35 37 38 39 40 41 41 41 41 40 40 40 40 40 40 39 39 39 40 40 40 39 39 39 38 38 38
15 17 20 22 24 23 24 25 27 28 29 30 30 32 33 32 33 34 36 38 39 39 40 41 41 40 40 39 40 40 41 41 40 40 40 40 40 40 40 39 39 38 39 38
15 17 19 21 23 24 25 25 26 26 27 28 28 29 31 31 32 33 35 37 38 39 40 40 40 40 39 39 40 40 40 41 40 40 40 40 40 39 38 38 38 38 38 37
14 16 18 19 23 24 24 25 26 26 26 27 28 28 29 30 31 32 33 35 37 38 39 41 41 40 40 40 40 41 41 41 41 40 40 40 40 40 39 38 37 37 37 37
14 16 17 19 21 23 24 26 27 26 26 26 28 27 26 27 28 30 31 32 34 35 37 39 39 40 40 40 41 41 41 41 42 41 40 39 40 40 38 38 38 38 37 37
13 16 17 18 20 22 24 25 26 26 26 26 27 26 25 26 27 28 30 31 32 33 34 36 37 38 39 40 41 41 41 41 41 41 40 40 40 40 39 38 38 37 37 37
15 15 17 18 20 22 24 25 26 26 27 26 25 24 23 24 25 27 28 29 30 31 33 34 36 36 37 38 40 41 40 40 40 40 40 40 40 39 39 38 38 37 36 36
15 16 17 18 20 21 22 24 26 27 27 27 26 25 24 24 25 27 27 28 30 31 31 32 34 35 36 36 38 39 40 40 39 39 39 39 39 39 38 38 38 38 38 37
17 16 17 17 19 21 21 22 25 26 26 26 25 26 26 26 26 27 27 27 28 29 30 31 33 35 35 35 36 37 38 39 39 39 39 39 39 39 38 38 38 39 39 39
17 17 17 17 18 20 21 22 23 24 25 24 23 23 24 25 26 27 28 28 28 28 29 30 31 33 35 35 35 35 36 37 38 39 39 39 39 39 39 39 39 40 40 39
16 17 17 17 18 19 20 21 22 22 24 24 24 24 24 25 26 26 27 28 28 28 28 29 30 32 34 35 35 35 35 36 37 38 39 40 40 39 39 38 39 39 39 39
16 17 17 17 18 18 19 20 21 22 22 22 23 24 25 25 25 27 26 27 27 27 27 28 29 31 32 34 35 35 36 36 36 37 37 38 38 38 38 38 37 38 38 38
14 17 18 18 18 18 18 20 21 21 21 21 21 22 23 25 25 26 27 27 28 28 28 28 29 30 31 33 34 35 35 35 36 37 36 37 37 37 37 38 37 37 37 37
14 15 17 18 18 17 17 19 21 22 22 21 21 22 23 24 25 25 26 27 28 29 29 28 29 29 30 31 33 33 34 34 35 35 36 36 36 36 36 37 36 36 36 36
13 14 16 17 18 17 18 19 20 22 21 21 22 22 23 24 25 26 26 27 28 28 29 29 29 30 30 30 31 32 32 33 34 35 35 35 35 35 35 35 36 36 36 36
14 15 15 16 17 17 18 19 20 20 21 21 21 22 23 24 25 25 26 27 28 28 29 30 30 31 31 30 31 31 32 33 33 34 34 34 34 34 34 34 34 35 35 35
16 17 17 17 17 18 18 19 19 19 20 20 21 22 23 24 24 24 25 26 27 28 29 30 30 30 31 31 32 32 32 32 32 33 33 33 34 33 33 33 34 34 34 34
15 16 17 17 18 18 19 19 19 19 20 20 21 22 23 23 24 25 25 26 26 26 27 29 30 30 30 31 31 32 32 31 31 32 32 33 33 33 33 33 33 34 34 35
15 16 16 17 17 18 18 19 19 19 20 20 20 21 22 22 22 23 24 24 25 26 27 28 29 30 30 31 31 31 32 32 31 31 32 32 32 32 32 32 32 32 33 33
15 15 16 16 16 17 17 18 18 18 19 19 19 20 21 22 22 22 22 23 24 25 25 27 29 30 31 31 31 31 31 31 31 31 31 31 31 31 31 31 32 32 32 32
Wind_Direction
243 240 236 234 231 230 229 231 232 232 233 235 235 234 233 233 234 231 230 230 231 232 232 233 232 232 232 232 233 234 235 235 236 237 237 238 240 243 245 247 249 252 255 257
242 239 237 234 229 228 229 230 230 232 232 234 235 234 233 233 232 231 230 229 230 231 231 232 231 231 232 233 233 234 235 235 236 237 237 238 241 243 245 247 250 252 255 257
242 238 235 232 228 228 228 231 231 232 232 234 235 234 232 232 231 230 230 229 229 230 230 230 231 231 233 233 233 233 235 236 236 237 237 238 241 244 245 248 250 252 254 257
241 235 232 230 228 227 229 230 232 233 233 233 233 234 233 232 231 230 228 228 228 230 231 230 231 231 233 233 234 234 235 236 237 237 238 239 240 243 245 247 249 251 252 255
240 233 231 228 225 226 230 230 232 234 236 237 236 236 233 232 231 229 228 227 227 229 230 231 231 231 233 233 234 234 235 235 236 238 239 240 241 244 245 246 248 250 252 253
242 234 231 228 227 229 230 230 232 233 235 237 237 238 235 232 231 230 230 229 229 229 229 231 231 231 232 232 233 234 234 235 236 238 240 241 243 244 245 247 248 251 253 254
242 232 227 224 225 226 225 227 229 231 234 236 236 238 236 233 233 233 232 231 229 229 229 230 231 232 232 232 233 233 234 234 236 239 240 242 245 245 247 248 250 251 252 254
242 234 228 224 224 225 224 224 227 230 233 235 235 236 235 234 233 233 232 231 230 229 230 231 232 233 233 232 232 233 234 235 236 239 241 244 246 247 249 250 250 251 253 255
246 236 233 228 224 225 224 226 227 232 237 237 235 235 236 235 235 234 233 232 231 231 231 233 233 233 234 233 233 233 233 234 236 239 242 243 245 246 249 250 250 251 254 254
248 240 234 232 226 227 228 228 227 232 236 238 238 237 237 237 237 235 234 234 234 234 233 233 233 234 235 234 233 233 234 234 235 238 241 243 244 246 248 249 250 252 254 254
255 244 238 236 229 229 228 226 230 233 234 240 242 240 241 241 239 238 237 237 237 235 235 236 236 235 236 236 235 235 235 236 237 238 240 242 244 246 247 249 249 251 253 254
260 248 245 242 235 231 228 228 232 234 235 239 241 241 243 243 240 239 239 238 237 237 237 237 236 236 236 237 237 236 236 238 238 239 240 241 244 246 247 248 248 250 253 255
264 260 252 242 235 232 231 230 233 235 238 240 241 241 243 242 240 238 238 237 237 238 237 236 236 235 236 236 236 236 237 238 239 239 240 242 244 246 247 247 248 249 252 254
263 263 259 248 241 237 235 233 234 237 238 239 241 241 243 244 243 239 239 238 237 239 238 238 236 236 236 236 236 236 236 238 238 239 240 241 243 245 246 247 248 249 251 253
262 264 260 253 246 242 238 235 236 237 237 238 240 241 242 243 243 242 241 240 241 241 239 238 238 236 235 235 236 236 237 238 238 239 240 241 243 245 246 248 249 250 252 253
262 263 261 255 249 245 241 236 237 237 235 239 239 241 242 241 242 242 243 242 242 241 239 238 237 235 234 234 235 236 238 239 239 239 240 242 243 245 247 248 249 251 252 254
264 261 262 258 254 248 242 239 238 237 237 242 243 242 243 241 240 241 241 241 242 242 239 239 237 235 234 234 235 236 239 240 240 240 241 243 244 245 247 248 249 250 252 253
261 260 262 259 254 251 245 240 239 240 242 244 245 244 244 243 242 242 242 240 240 240 240 239 237 235 235 235 235 236 239 241 240 241 241 241 242 245 247 248 249 250 252 253
262 260 260 258 255 251 246 245 244 243 242 246 248 247 244 243 242 242 241 240 239 239 240 240 239 238 237 237 238 239 240 242 242 241 242 242 243 244 247 248 248 250 251 252
266 262 260 258 255 255 252 251 248 247 247 249 250 250 248 245 243 242 243 242 242 241 240 240 241 240 240 240 240 241 241 242 242 242 242 242 242 244 246 248 248 248 250 251
271 266 261 257 256 257 256 255 252 251 252 253 253 251 250 250 249 247 247 246 245 244 242 242 242 241 242 241 241 241 241 242 243 242 241 241 241 243 245 246 247 248 249 251
272 271 267 264 260 257 258 257 255 254 255 256 254 253 253 252 250 249 249 249 248 246 244 243 243 243 241 240 240 240 242 242 242 242 241 241 241 242 244 245 247 249 250 251
273 272 272 269 265 259 258 259 257 253 254 257 258 256 255 253 251 249 249 249 250 249 246 245 243 242 242 241 241 242 242 242 242 241 240 240 241 242 244 246 247 249 251 252
281 277 275 271 265 261 259 258 256 254 254 256 258 259 257 255 252 251 250 248 248 248 246 244 242 241 240 241 241 241 240 239 240 241 240 240 241 243 245 246 248 250 251 253
285 282 277 272 268 264 260 257 254 253 254 258 261 261 258 255 253 253 253 250 247 246 245 243 241 239 239 240 240 240 239 238 239 240 241 241 242 243 245 247 249 251 252 255
284 282 278 274 270 266 261 257 254 255 257 261 262 261 258 255 253 253 252 250 248 246 244 242 240 239 239 239 239 239 239 239 239 240 242 243 244 246 247 248 250 252 255 257
Height
5612 5615 5617 5622 5627 5632 5635 5639 5644 5650 5654 5658 5662 5667 5672 5675 5680 5685 5690 5695 5700 5705 5710 5714 5719 5723 5728 5732 5737 5741 5745 5749 5753 5757 5761 5765 5768 5772 5775 5777 5780 5782 5784 5785
5606 5608 5612 5615 5618 5623 5627 5632 5637 5643 5646 5649 5654 5659 5663 5666 5671 5676 5681 5686 5691 5696 5701 5706 5710 5715 5720 5724 5728 5733 5737 5741 5744 5748 5752 5757 5760 5763 5766 5769 5772 5774 5776 5778
5599 5603 5605 5607 5611 5615 5620 5625 5631 5635 5639 5641 5645 5650 5654 5658 5662 5667 5672 5677 5683 5688 5693 5698 5702 5707 5712 5716 5721 5725 5729 5732 5736 5740 5744 5748 5751 5755 5758 5761 5763 5766 5768 5769
5593 5596 5598 5601 5605 5609 5615 5620 5624 5627 5630 5633 5638 5640 5646 5650 5654 5659 5664 5669 5675 5680 5685 5690 5694 5699 5703 5708 5712 5716 5720 5724 5728 5732 5736 5739 5743 5746 5749 5752 5755 5757 5759 5760
5588 5590 5592 5596 5600 5604 5609 5614 5617 5620 5623 5626 5629 5632 5638 5641 5646 5652 5657 5662 5667 5672 5677 5682 5686 5691 5695 5699 5704 5708 5712 5716 5720 5724 5727 5731 5734 5738 5741 5743 5746 5748 5750 5752
5585 5586 5588 5592 5596 5600 5603 5607 5611 5614 5616 5619 5623 5625 5630 5635 5641 5646 5650 5654 5659 5664 5668 5673 5678 5682 5687 5691 5696 5700 5704 5709 5712 5716 5719 5723 5726 5729 5732 5735 5738 5740 5742 5744
5582 5583 5585 5587 5591 5594 5597 5601 5604 5607 5608 5612 5616 5618 5624 5630 5634 5638 5643 5647 5651 5655 5660 5665 5669 5674 5679 5683 5688 5692 5696 5701 5704 5708 5712 5715 5718 5721 5724 5727 5729 5732 5734 5736
5578 5580 5581 5583 5586 5589 5592 5596 5599 5601 5603 5607 5610 5612 5618 5623 5627 5631 5635 5639 5643 5647 5652 5656 5661 5666 5670 5675 5679 5683 5688 5692 5696 5700 5703 5707 5710 5713 5716 5718 5721 5723 5725 5727
5574 5576 5578 5579 5582 5585 5587 5590 5594 5597 5598 5601 5604 5607 5612 5616 5619 5623 5627 5631 5635 5639 5644 5648 5653 5657 5662 5666 5670 5674 5679 5683 5688 5691 5695 5698 5701 5704 5707 5709 5712 5714 5716 5718
5571 5573 5574 5575 5578 5580 5584 5586 5589 5591 5592 5595 5598 5602 5606 5609 5613 5616 5620 5624 5628 5632 5635 5640 5644 5649 5653 5657 5662 5666 5670 5674 5678 5682 5686 5689 5692 5695 5698 5701 5703 5706 5708 5710
5568 5570 5571 5572 5573 5575 5578 5581 5582 5585 5588 5590 5593 5600 5601 5603 5606 5610 5614 5617 5621 5624 5628 5632 5636 5640 5644 5648 5653 5657 5661 5665 5669 5673 5677 5680 5684 5687 5689 5692 5695 5697 5699 5701
5564 5565 5566 5568 5569 5570 5573 5575 5578 5581 5583 5585 5588 5596 5595 5597 5600 5603 5606 5610 5613 5616 5620 5624 5627 5631 5635 5640 5644 5648 5652 5656 5660 5664 5668 5671 5675 5678 5680 5683 5686 5688 5690 5692
5560 5561 5562 5563 5567 5567 5568 5570 5573 5575 5578 5580 5583 5590 5589 5591 5593 5596 5599 5602 5605 5609 5612 5615 5619 5623 5626 5630 5634 5639 5643 5647 5651 5655 5658 5662 5665 5669 5671 5674 5676 5679 5681 5683
5556 5557 5558 5559 5559 5561 5563 5565 5568 5570 5572 5575 5578 5582 5584 5585 5587 5590 5592 5595 5598 5601 5604 5607 5611 5614 5618 5621 5625 5629 5634 5638 5641 5645 5649 5653 5656 5659 5662 5665 5667 5670 5672 5674
5552 5553 5553 5554 5555 5556 5558 5560 5562 5564 5567 5569 5573 5575 5577 5579 5581 5583 5585 5588 5591 5593 5596 5599 5602 5606 5609 5613 5617 5621 5625 5629 5632 5636 5640 5644 5647 5650 5653 5655 5658 5660 5663 5665
5548 5548 5549 5550 5550 5551 5553 5555 5556 5559 5561 5563 5566 5569 5570 5572 5574 5576 5578 5581 5583 5586 5589 5591 5594 5597 5601 5605 5609 5612 5616 5620 5623 5627 5631 5634 5638 5641 5643 5646 5648 5651 5653 5656
5543 5544 5544 5545 5545 5546 5548 5550 5551 5553 5555 5557 5560 5563 5564 5566 5567 5569 5571 5573 5576 5579 5581 5584 5587 5590 5593 5597 5600 5604 5607 5611 5614 5618 5621 5625 5628 5631 5634 5636 5639 5642 5644 5646
5539 5539 5539 5540 5541 5542 5545 5544 5545 5547 5549 5551 5553 5555 5557 5558 5560 5562 5564 5566 5569 5571 5574 5576 5579 5582 5585 5589 5592 5595 5599 5602 5605 5609 5612 5615 5618 5622 5624 5627 5629 5632 5634 5636
5534 5534 5534 5535 5535 5536 5539 5539 5540 5542 5544 5545 5546 5548 5549 5551 5553 5555 5557 5559 5561 5564 5566 5569 5572 5575 5577 5580 5583 5587 5590 5593 5596 5599 5603 5606 5609 5612 5615 5617 5620 5622 5625 5627
5530 5530 5530 5530 5530 5531 5534 5534 5534 5536 5538 5539 5540 5541 5543 5544 5547 5549 5550 5552 5554 5556 5559 5561 5564 5567 5569 5572 5575 5578 5581 5584 5587 5591 5594 5597 5600 5602 5605 5608 5610 5613 5615 5617
5526 5525 5525 5525 5525 5526 5527 5527 5528 5531 5533 5533 5533 5535 5536 5537 5539 5541 5542 5544 5546 5548 5551 5553 5556 5559 5561 5564 5567 5570 5572 5576 5578 5581 5584 5588 5590 5593 5596 5598 5601 5603 5606 5608
5521 5520 5520 5520 5520 5523 5521 5522 5523 5525 5525 5526 5527 5528 5529 5530 5531 5532 5534 5536 5538 5540 5543 5545 5547 5550 5553 5556 5559 5561 5564 5567 5569 5572 5576 5579 5582 5585 5587 5590 5592 5594 5596 5598
5517 5516 5515 5515 5517 5516 5515 5516 5517 5518 5519 5519 5520 5521 5522 5523 5524 5525 5527 5528 5530 5532 5534 5536 5539 5542 5544 5547 5550 5553 5555 5558 5561 5563 5567 5570 5573 5576 5578 5581 5583 5585 5587 5590
5512 5511 5510 5509 5509 5509 5509 5510 5510 5511 5512 5513 5513 5514 5514 5515 5517 5518 5519 5521 5522 5524 5526 5528 5531 5533 5536 5539 5541 5544 5547 5550 5552 5555 5558 5561 5564 5567 5570 5572 5575 5577 5579 5581
5507 5505 5504 5503 5503 5503 5504 5504 5505 5505 5506 5506 5506 5507 5507 5508 5509 5510 5512 5513 5514 5516 5518 5520 5522 5525 5528 5530 5533 5536 5539 5541 5544 5547 5550 5553 5556 5559 5562 5564 5566 5568 5570 5572
5502 5500 5499 5498 5498 5498 5498 5498 5499 5499 5500 5500 5500 5500 5500 5501 5502 5503 5504 5505 5507 5509 5510 5512 5515 5517 5520 5522 5525 5528 5531 5533 5536 5539 5542 5545 5548 5551 5553 5556 5558 5559 5562 5563